FW5768 Weather Reports


time (UTC)temp
F
wind
direction
speed
knots
gust
knots
rain 1hr
in
rain 24hr
in
rain mn
in
humidity
%
barometer
mb
20260504192304 57 253 2.6 5.2 0.00 0.00 0.00 54 1012.7
20260504191804 58 285 1.7 6.1 0.00 0.00 0.00 53 1012.8
20260504191304 59 268 3.5 6.1 0.00 0.00 0.00 52 1012.4
20260504190805 59 255 2.6 6.1 0.00 0.00 0.00 51 1012.4
20260504190305 59 271 3.5 6.1 0.00 0.00 0.00 50 1012.3
20260504185805 60 262 3.5 6.1 0.00 0.00 0.00 49 1012.1
20260504185305 60 241 2.6 6.1 0.00 0.00 0.00 49 1012.2
20260504184305 62 224 4.3 7.8 0.00 0.00 0.00 46 1011.8
20260504183305 63 258 3.5 7.8 0.00 0.00 0.00 45 1011.8
20260504182304 63 253 5.2 12.2 0.00 0.00 0.00 42 1011.6
20260504181804 64 268 6.1 12.2 0.00 0.00 0.00 42 1011.4
20260504181305 64 269 6.1 11.3 0.00 0.00 0.00 41 1011.5
20260504180804 64 275 5.2 11.3 0.00 0.00 0.00 42 1011.4
20260504175804 63 264 4.3 11.3 0.00 0.00 0.00 43 1011.6
20260504175304 64 260 5.2 11.3 0.00 0.00 0.00 43 1011.3
20260504174305 65 272 6.1 11.3 0.00 0.00 0.00 42 1011.3
20260504173804 66 317 5.2 10.4 0.00 0.00 0.00 41 1011.2
20260504173304 65 267 4.3 8.7 0.00 0.00 0.00 42 1011.5
20260504172804 66 263 2.6 7.8 0.00 0.00 0.00 43 1011.1
20260504172304 65 263 4.3 13.0 0.00 0.00 0.00 42 1011.2
20260504170805 68 263 5.2 8.7 0.00 0.00 0.00 38 1010.9
20260504170304 68 306 4.3 8.7 0.00 0.00 0.00 40 1010.9
20260504160304 67 273 6.1 12.2 0.00 0.00 0.00 41 1010.8
20260504150804 68 255 2.6 7.8 0.00 0.02 0.00 43 1010.7
20260504150304 69 260 5.2 13.9 0.00 0.02 0.00 42 1010.7
20260504141304 69 231 5.2 13.0 0.00 0.04 0.00 46 1010.7
20260504140804 69 237 2.6 10.4 0.00 0.04 0.00 46 1011.0
20260504140304 68 254 2.6 7.8 0.00 0.04 0.00 46 1011.2
20260504130804 66 308 5.2 11.3 0.00 0.04 0.00 53 1011.7
20260504120305 66 237 4.3 13.0 0.00 0.62 0.00 45 1011.9
20260504110304 66 228 6.1 11.3 0.00 0.62 0.00 53 1012.2
20260504100305 63 276 5.2 10.4 0.00 0.62 0.00 62 1012.4
20260504081805 57 228 0.9 4.3 0.00 0.62 0.00 82 1013.0
20260504081304 57 233 2.6 5.2 0.00 0.62 0.00 83 1013.0
20260504080804 56 219 3.5 5.2 0.00 0.62 0.00 84 1013.2
20260504080304 56 236 3.5 6.1 0.00 0.62 0.00 85 1013.2
20260504050304 52 257 0.9 1.7 0.00 0.62 0.00 93 1011.8
20260504045804 52 230 0.0 0.9 0.00 0.62 0.00 93 1011.9
20260504045305 52 242 0.9 2.6 0.00 0.62 0.00 93 1011.9
20260504044805 53 236 1.7 2.6 0.00 0.62 0.00 93 1011.7
20260504044304 53 178 0.9 1.7 0.00 0.62 0.00 94 1011.9
20260504043804 53 200 0.0 1.7 0.00 0.62 0.00 94 1011.8
20260504043304 53 206 0.0 0.9 0.00 0.62 0.00 94 1011.8
20260504042804 53 216 0.0 1.7 0.00 0.62 0.00 94 1011.8
20260504042305 53 140 1.7 2.6 0.00 0.62 0.00 95 1011.8
20260504041804 53 142 0.9 1.7 0.00 0.62 0.00 95 1011.7
20260504041304 53 142 0.9 1.7 0.00 0.62 0.00 96 1011.9
20260504040804 53 78 0.0 0.0 0.00 0.62 0.00 96 1012.1
20260504040305 53 62 0.0 0.0 0.00 0.62 0.00 96 1012.0
20260504035804 53 108 0.0 0.0 0.00 0.62 0.00 96 1012.0
20260504035305 53 125 0.0 0.0 0.00 0.62 0.00 96 1012.0
20260504033804 53 256 0.9 1.7 0.00 0.62 0.00 95 1012.4
20260504032805 54 255 1.7 6.1 0.00 0.62 0.00 95 1012.7
20260504032304 54 264 0.9 2.6 0.00 0.62 0.00 95 1012.5
20260504031804 54 144 1.7 4.3 0.00 0.62 0.00 95 1012.1
20260504031304 54 126 1.7 4.3 0.00 0.62 0.00 95 1011.9
20260504025804 54 110 1.7 4.3 0.00 0.62 0.00 95 1011.9
20260504024804 54 80 1.7 5.2 0.00 0.62 0.00 95 1012.0
20260504024304 54 88 1.7 4.3 0.00 0.62 0.00 95 1011.8
20260504023804 54 105 1.7 4.3 0.00 0.62 0.00 95 1011.8
20260504022804 54 129 1.7 2.6 0.00 0.62 0.00 95 1011.9
20260504022305 54 121 1.7 5.2 0.00 0.62 0.00 95 1012.2
20260504021804 54 128 1.7 4.3 0.00 0.62 0.00 95 1012.1
20260504020804 54 121 1.7 2.6 0.00 0.62 0.00 95 1012.2
20260504020305 54 130 2.6 5.2 0.00 0.62 0.00 95 1012.4
20260504015804 54 143 2.6 4.3 0.00 0.62 0.00 95 1012.3
20260504015305 54 158 0.9 2.6 0.00 0.62 0.00 95 1012.3
20260504014804 54 120 1.7 5.2 0.00 0.62 0.00 95 1012.4
20260504014304 54 128 1.7 4.3 0.00 0.62 0.00 95 1012.4
20260504013804 54 135 1.7 4.3 0.00 0.62 0.00 95 1012.3
20260504011804 54 182 0.9 1.7 0.00 0.62 0.00 95 1012.8
20260504011304 54 177 0.9 2.6 0.00 0.62 0.00 95 1012.9
20260504010804 55 149 1.7 4.3 0.00 0.62 0.00 95 1012.9
20260504010304 55 120 0.9 5.2 0.00 0.62 0.00 95 1012.9
20260504005804 55 92 1.7 5.2 0.00 0.62 0.00 95 1013.0
20260504005305 55 128 2.6 6.1 0.00 0.62 0.00 95 1013.0
20260504004804 55 147 1.7 4.3 0.00 0.62 0.00 95 1012.7
20260504004304 55 106 1.7 4.3 0.00 0.62 0.00 95 1012.8
20260504003805 55 134 2.6 5.2 0.00 0.62 0.00 95 1013.0
20260504003304 55 136 2.6 5.2 0.00 0.62 0.00 95 1013.1
20260504002304 55 96 2.6 6.1 0.00 0.62 0.00 95 1013.3
20260504001804 55 133 2.6 6.1 0.00 0.62 0.00 95 1013.2
20260504001304 55 121 2.6 7.0 0.00 0.62 0.00 95 1012.8
20260504000804 55 118 2.6 6.1 0.00 0.62 0.00 95 1012.5
20260504000304 55 124 2.6 5.2 0.00 0.62 0.00 95 1012.4
20260503235804 55 128 1.7 6.1 0.00 0.62 0.00 95 1012.7
20260503235304 55 140 1.7 5.2 0.00 0.62 0.00 95 1012.7
20260503234804 55 119 1.7 7.0 0.00 0.62 0.00 95 1012.8
20260503233804 55 125 1.7 6.1 0.00 0.62 0.00 94 1012.9
20260503233304 55 72 2.6 5.2 0.00 0.62 0.00 94 1012.9
20260503232804 55 138 2.6 6.1 0.00 0.62 0.00 94 1013.0
20260503232305 55 113 2.6 7.0 0.00 0.62 0.00 94 1012.9
20260503231805 55 135 2.6 6.1 0.00 0.62 0.00 94 1013.0
20260503231304 55 143 1.7 5.2 0.00 0.62 0.00 94 1012.9
20260503230804 55 132 2.6 7.0 0.00 0.62 0.00 94 1012.9
20260503230304 55 166 1.7 5.2 0.00 0.62 0.00 94 1013.0
20260503225804 55 148 1.7 5.2 0.00 0.62 0.00 94 1013.1
20260503225305 55 121 1.7 5.2 0.00 0.62 0.00 94 1013.4
20260503224304 56 107 1.7 7.0 0.00 0.62 0.00 93 1013.4
20260503223804 56 103 1.7 6.1 0.00 0.62 0.00 93 1013.3
20260503223304 56 107 1.7 6.1 0.00 0.62 0.00 93 1013.2
20260503222804 56 94 2.6 5.2 0.00 0.62 0.00 93 1013.2
20260503222304 56 113 2.6 5.2 0.00 0.62 0.00 93 1013.3
20260503221804 56 165 1.7 5.2 0.00 0.62 0.00 93 1013.3
20260503220804 56 94 2.6 6.1 0.00 0.62 0.00 93 1013.4
20260503215804 56 134 2.6 5.2 0.00 0.62 0.62 93 1013.4
20260503215304 56 116 1.7 6.1 0.00 0.62 0.62 92 1013.3
20260503214804 56 130 2.6 7.0 0.00 0.62 0.62 92 1013.5
20260503214304 56 110 2.6 5.2 0.00 0.62 0.62 92 1013.5
20260503213804 57 143 1.7 4.3 0.00 0.62 0.62 92 1013.4
20260503213304 57 143 1.7 5.2 0.00 0.62 0.62 92 1013.5
20260503212804 57 116 2.6 6.1 0.00 0.62 0.62 92 1013.5
20260503211804 57 108 1.7 5.2 0.00 0.62 0.62 92 1013.5
20260503210804 57 134 2.6 5.2 0.00 0.62 0.62 91 1013.4
20260503210305 58 102 2.6 6.1 0.00 0.62 0.62 91 1013.3
20260503205804 58 120 2.6 7.0 0.00 0.62 0.62 90 1013.3
20260503205304 58 157 0.9 5.2 0.00 0.62 0.62 90 1013.1
20260503204804 58 154 1.7 6.1 0.00 0.62 0.62 90 1013.1
20260503203804 58 88 2.6 6.1 0.00 0.62 0.62 89 1013.1
20260503203304 59 75 1.7 7.8 0.00 0.62 0.62 89 1012.9
20260503202804 59 102 3.5 7.8 0.00 0.62 0.62 89 1012.7
20260503201804 59 143 0.9 5.2 0.00 0.62 0.62 86 1012.7
20260503201304 60 154 2.6 5.2 0.00 0.62 0.62 84 1012.6
20260503200304 60 79 0.9 2.6 0.00 0.62 0.62 69 1012.4
20260503195804 61 102 0.9 1.7 0.00 0.62 0.62 68 1012.3
20260503195305 61 124 0.9 1.7 0.00 0.62 0.62 66 1012.3
20260503194804 61 137 0.0 0.9 0.00 0.62 0.62 66 1012.3
20260503194304 61 211 0.9 0.9 0.00 0.62 0.62 66 1012.2
20260503193805 61 234 0.0 1.7 0.00 0.62 0.62 66 1012.0
20260503193304 61 167 0.9 0.9 0.00 0.62 0.62 68 1012.1
20260503192804 62 215 0.0 0.9 0.00 0.62 0.62 67 1012.0